Regional Weather Roundup
Issued by NWS Northern Indiana

Home | Current Version | Previous Version | Graphics & Text | Print | Product List | Glossary On
Versions: 1 2 3 4 5 6 7 8 9 10 11 12 13 14 15 16 17 18 19 20 21 22 23 24 25 26 27 28 29 30 31 32 33 34 35 36 37 38 39 40 41 42 43 44 45 46 47 48 49 50
000
ASUS43 KIWX 171210
RWRIWX

KIWX WEATHER ROUNDUP
NATIONAL WEATHER SERVICE NORTHERN INDIANA
700 AM EST SUN DEC 17 2017

NOTE: "FAIR" INDICATES FEW OR NO CLOUDS BELOW 12,000 FEET WITH NO
SIGNIFICANT WEATHER AND/OR OBSTRUCTIONS TO VISIBILITY.

* THESE STATIONS ARE NOT UNDER NWS QUALITY CONTROL. THEY ALSO MAY NOT
  REPORT WEATHER SUCH AS PRECIPITATION OR FOG.

INZ001>027-171300-
NORTHERN INDIANA

CITY           SKY/WX    TMP DP  RH WIND       PRES   REMARKS
GARY*          PTCLDY    30  27  86 CALM      30.07F
VALPARAISO     CLOUDY    30  26  85 E3        30.07S
6HR MIN TEMP:  28; 6HR MAX TEMP:  35;

MICHIGAN CITY* CLOUDY    30  30 100 CALM      30.08S
LAPORTE*       CLOUDY    26  24  94 E5        30.07F WCI  20
6HR MIN TEMP:  21; 6HR MAX TEMP:  28;

KNOX*          CLOUDY    32  28  86 SE5       30.08R WCI  27
SOUTH BEND     CLOUDY    27  26  96 E7        30.09S WCI  19
6HR MIN TEMP:  25; 6HR MAX TEMP:  29;

GOSHEN         CLOUDY    28  25  88 E7        30.10R FOG     WCI  21
6HR MIN TEMP:  27; 6HR MAX TEMP:  32;

MONTICELLO*    CLOUDY    33  28  83 S5        30.09R WCI  29
6HR MIN TEMP:  32; 6HR MAX TEMP:  37;

LOGANSPORT*    CLOUDY    32  28  86 S5        30.11R WCI  27
ROCHESTER*     CLOUDY    32  30  93 CALM      30.08F
WARSAW*        CLOUDY    30  28  93 SE3       30.10R
AUBURN*        FOG       28  28 100 E6        30.13S VSB 3/4 WCI  22
FORT WAYNE     CLOUDY    26  24  92 NE7       30.12S WCI  18
6HR MIN TEMP:  26; 6HR MAX TEMP:  28;

HUNTINGTON*    CLOUDY    28  27  94 E3        30.11R
6HR MIN TEMP:  27; 6HR MAX TEMP:  32;

PERU/GRISSOM   CLOUDY    33  30  89 S6        30.09R WCI  27
6HR MIN TEMP:  32; 6HR MAX TEMP:  34;

MARION*        CLOUDY    33  29  83 S7        30.12R WCI  27
6HR MIN TEMP:  26; 6HR MAX TEMP:  47;


$$
INZ028>050-171300-
CENTRAL INDIANA

CITY           SKY/WX    TMP DP  RH WIND       PRES   REMARKS
LAFAYETTE      CLOUDY    37  29  72 S3        30.10R
6HR MIN TEMP:  36; 6HR MAX TEMP:  38;

KOKOMO*        MOCLDY    33  28  81 S7        30.11R WCI  27
6HR MIN TEMP:  32; 6HR MAX TEMP:  35;

MUNCIE*        CLOUDY    38  28  67 S6        30.12R
6HR MIN TEMP:  37; 6HR MAX TEMP:  39;

INDIANAPOLIS   CLOUDY    39  29  67 S5        30.12R
6HR MIN TEMP:  36; 6HR MAX TEMP:  39;


$$
MIZ043>046-050>051-056>058-064>065-071>073-077>080-171300-
SOUTHWEST LOWER MICHIGAN

CITY           SKY/WX    TMP DP  RH WIND       PRES   REMARKS
BATTLE CREEK   FOG       27  26  96 SE8       30.13S VSB 1   WCI  19
6HR MIN TEMP:  23; 6HR MAX TEMP:  27;

BENTON HARBOR  PTCLDY    26  22  84 E6        30.10R FOG     WCI  19
6HR MIN TEMP:  25; 6HR MAX TEMP:  29;

COLDWATER*     CLOUDY    27  27 100 E7        30.13S FOG     WCI  20
6HR MIN TEMP:  25; 6HR MAX TEMP:  28;

HILLSDALE*     FOG       27  23  86 E7        30.12F VSB 3/4 WCI  19
HOLLAND        CLOUDY    23  21  92 E13       30.14S WCI  11
6HR MIN TEMP:  22; 6HR MAX TEMP:  24;

GRAND RAPIDS   CLOUDY    22  19  89 E13       30.15S WCI  10
6HR MIN TEMP:  21; 6HR MAX TEMP:  22;

KALAMAZOO      FOG       27  25  92 E6        30.12S VSB 1   WCI  20
6HR MIN TEMP:  24; 6HR MAX TEMP:  27;

STURGIS*       CLOUDY    27  26  96 E7        30.11S FOG     WCI  20
6HR MIN TEMP:  26; 6HR MAX TEMP:  29;

THREE RIVERS*  CLOUDY    27  26  98 E7        30.12F FOG     WCI  19
6HR MIN TEMP:  25; 6HR MAX TEMP:  28;


$$
OHZ001>008-015>018-024>025-171300-
NORTHWEST OHIO

CITY           SKY/WX    TMP DP  RH WIND       PRES   REMARKS
WAUSEON*       FOG       27  27 100 NE9       30.15S VSB<1/4 WCI  17
DEFIANCE       FOG       30  28  92 E8        30.15S VSB 1/2 WCI  22
6HR MIN TEMP:  28; 6HR MAX TEMP:  30;

FINDLAY        CLOUDY    27  23  85 E3        30.13S
6HR MIN TEMP:  25; 6HR MAX TEMP:  30;

TOLEDO EXPRESS CLOUDY    29  29 100 NE6       30.16R FOG     WCI  23
6HR MIN TEMP:  29; 6HR MAX TEMP:  30;

TOLEDO METCALF CLOUDY    29  26  89 NE8       30.18R WCI  21
6HR MIN TEMP:  29; 6HR MAX TEMP:  31;

LIMA           CLOUDY    32  28  85 S8        30.12F WCI  25
6HR MIN TEMP:  31; 6HR MAX TEMP:  36;


$$
AND FOR LAKE MICHIGAN COASTAL AND OPEN LAKE BUOY OBSERVATIONS

STATION/POSITION TEMP    WIND        PRES    VSBY  WAVE
                 AIR SEA DIR/SP/G                  HT/PER
                 (F)     (DEG/KT/KT) (MB)    (MI)  (FT/S)
CALUMET HARBOR    33     200/  1/  3 1017.4S
MICHIGAN CITY     32     130/  8/  9   N/A
BURNS HARBOR      35     170/  1/  3 1018.6S
SAINT JOSEPH      27     100/  4/  7 1019.6

$$
&&




USA.gov is the U.S. government's official web portal to all federal, state and local government web resources and services.